User: anonymous   Login
Location: Unspecified
(0.0000°N, 0.0000°E)
Time: 07:27:26
(UTC+00:00)
Language:

NOSS 3-1 (A) - Orbit

View from above orbital plane
View from above orbital plane
View from above satellite
View from above satellite

Ground track
Ground track

The orbit data is extracted from the following two-line orbital elements,

1 26905U 01040A   17264.82521318 0.00000000  00000-0  00000-0 0    00
2 26905  63.4120 146.8847 0377000 358.2966   1.7034 13.40751157    03
Epoch (UTC): 21 September 2017 19:48:18
Eccentricity: 0.0377000
inclination: 63.4120°
perigee height: 824 km
apogee height: 1388 km
right ascension of ascending node: 146.8847°
argument of perigee: 358.2966°
revolutions per day: 13.40751157
mean anomaly at epoch: 1.7034°
orbit number at epoch: 0

The dashed part of the orbit path shows where the satellite is in the earth's shadow,  

DLR